Regional Weather Roundup
Issued by NWS

Home | Current Version | Previous Version | Graphics & Text | Print | Product List | Glossary On
Versions: 1 2 3 4 5 6 7 8 9 10 11 12 13 14 15 16 17 18 19 20 21 22 23 24 25 26 27 28 29 30 31 32 33 34 35 36 37 38 39 40 41 42 43 44 45 46 47 48 49 50
000
ASUS43 KLSX 260359
RWRMO

WEATHER SUMMARY FOR MISSOURI
NATIONAL WEATHER SERVICE SPRINGFIELD MO
1100 PM CDT TUE APR 25 2017

NOTE: "FAIR" INDICATES FEW OR NO CLOUDS BELOW 12,000 FEET WITH NO
       SIGNIFICANT WEATHER AND/OR OBSTRUCTIONS TO VISIBILITY.
       CURRENT SKY AND/OR WEATHER CONDITIONS ARE NOT AVAILABLE FOR
       CHILLICOTHE AND FARMINGTON.

MOZ001>031-035>038-043-044-053-054-260500-
...NORTHERN AND WESTERN MISSOURI...

CITY           SKY/WX    TMP DP  RH WIND       PRES   REMARKS
KANSAS CTY INT LGT RAIN  52  50  93 NW8       29.52S
KANSAS C DTWN  LGT RAIN  56  52  86 N6        29.51R
LEE`S SUMMIT   LGT RAIN  57  56  96 N12       29.50F
ST JOSEPH      CLOUDY    50  47  89 N14       29.55R
CHILLICOTHE      N/A     62  57  83 CALM      29.49R
KIRKSVILLE     CLOUDY    62  59  90 CALM      29.47R

$$
MOZ066>068-077>081-088>096-101>105-260500-
...SOUTHWEST MISSOURI...

CITY           SKY/WX    TMP DP  RH WIND       PRES   REMARKS
SPRINGFIELD    CLOUDY    68  60  75 S8        29.49F
JOPLIN         CLOUDY    72  62  71 SE8       29.44F

$$
MOZ032>034-039>042-045>050-055>058-069>072-260500-
...CENTRAL MISSOURI...

CITY           SKY/WX    TMP DP  RH WIND       PRES   REMARKS
COLUMBIA       CLOUDY    70  57  63 S5        29.49R
JEFFERSON CITY CLOUDY    74  55  51 SE3       29.48R
ROLLA          CLOUDY    69  53  56 S14       29.51R
SEDALIA        CLOUDY    68  60  75 S3        29.48S
OSAGE BEACH    CLOUDY    71  56  58 S10       29.49S

$$
MOZ051-052-059>065-260500-
...EAST CENTRAL MISSOURI...

CITY           SKY/WX    TMP DP  RH WIND       PRES   REMARKS
ST LOUIS INTL  CLOUDY    73  50  44 SE9       29.54R
SPIRIT OF STL  CLOUDY    71  53  52 S7        29.51S
ST CHARLES     CLOUDY    71  51  49 S12       29.52R

$$
MOZ072>076-082>087-097>100-106>115-260500-
...SOUTH CENTRAL AND SOUTHEAST MISSOURI...

CITY           SKY/WX    TMP DP  RH WIND       PRES   REMARKS
CAPE GIRARDEAU PTCLDY    66  53  63 S7        29.58S
FARMINGTON     PTCLDY    67  53  61 S8        29.57S
POPLAR BLUFF   PTCLDY    68  55  63 S8        29.57S
WEST PLAINS    CLOUDY    69  53  56 S8        29.57R

$$




USA.gov is the U.S. government's official web portal to all federal, state and local government web resources and services.